Location: Sparkle
(37.9283°N, 122.0566°W)
Time: 02:03:50
(UTC+00:00)

Daily predictions for brighter satellites

Satellite Brightness Start Highest point End
(mag) Time Altitude Azimuth Time Altitude Azimuth Time Altitude Azimuth
Okean-O 3.9 03:50:05 10° ESE 03:53:38 24° ENE 03:57:12 10° NNE
Feng Yun 1-1 Rocket 4.5 03:49:18 10° SSE 03:55:10 72° ENE 04:01:04 10° N
Cosmos 2297 4.2 03:52:06 10° N 03:57:36 46° ENE 04:03:03 10° SE
Cosmos 494 Rocket 4.3 03:52:51 10° S 03:57:39 43° ESE 04:02:27 10° NNE
ATLAS 3B R/B 3.1 03:50:39 10° NNW 03:58:34 85° ENE 04:06:15 10° SSE
Cosmos 1378 2.8 03:55:22 10° S 03:58:38 88° W 04:01:55 10° N
USA 276 3.1 03:57:52 10° NNW 03:59:38 21° NNE 04:01:27 10° E
Cosmos 1464 Rocket 4.1 03:56:00 10° N 04:02:17 89° W 04:08:27 10° S
SPOT 5 4.1 04:03:29 10° ESE 04:06:59 22° ENE 04:10:24 10° NNE
Cosmos 2084 3.2 04:03:50 10° NNW 04:07:34 63° NE 04:10:59 12° SE
PSLV R/B 3.6 04:06:35 10° SSE 04:10:17 70° ENE 04:13:59 10° N
CSL-04 Rocket 3.6 04:05:31 10° SSE 04:10:48 84° ENE 04:16:07 10° NNW
MOS 1-B Rocket 4.5 04:03:43 10° SSE 04:11:23 67° ENE 04:17:55 10° N
Cosmos 44 3.1 04:07:27 10° NNW 04:12:12 89° WSW 04:16:27 11° SSE
ISS -1.6 04:12:38 10° NNW 04:15:08 19° NNE 04:17:38 10° ENE
Cosmos 1048 Rocket 4.2 04:10:36 10° S 04:15:29 45° ESE 04:20:22 10° NNE
SL-16 R/B 3.5 04:10:52 10° SW 04:16:16 45° WNW 04:21:43 10° N
CSL-04 Debris 4.3 04:11:30 10° S 04:16:58 79° WSW 04:22:26 10° NNW
Cosmos 1603 4.3 04:14:15 10° SSE 04:19:16 34° ESE 04:24:23 10° NE
FALCON 9 R/B 2.6 04:19:48 10° W 04:23:48 65° S 04:36:10 10° E
Cosmos 1656 Rocket 3.6 04:19:56 10° NNW 04:25:26 77° ENE 04:30:16 14° SSE
USA 290 4.1 04:23:12 10° NW 04:26:00 28° WSW 04:28:46 10° SSW
Cosmos 2369 Rocket 2.3 04:21:43 10° NNW 04:27:16 61° ENE 04:31:40 16° SE
BREEZE-M DEB (TANK) 4.0 04:27:39 10° W 04:30:05 43° NNW 04:36:12 10° NE
Cosmos 1842 Rocket 4.0 04:26:57 12° SSE 04:30:45 42° E 04:34:55 10° NNE
Cosmos 1371 Rocket 4.2 04:26:19 10° NNW 04:31:40 76° WSW 04:36:48 11° S
SeaSat 1 3.3 04:28:22 10° S 04:33:04 47° WSW 04:37:49 10° NW
Resurs 01 Rocket 2.6 04:31:08 10° S 04:35:22 46° W 04:39:39 10° NNW
Cosmos 1634 Rocket 4.1 04:29:15 10° N 04:35:25 57° E 04:40:23 16° SSE
Meteor 2-6 Rocket 4.1 04:30:13 10° S 04:35:48 72° E 04:41:16 10° NNE
CZ-4 R/B 3.9 04:34:18 10° SW 04:36:49 17° W 04:39:21 10° NW
Aureole 3 Rocket 3.6 04:32:56 10° N 04:37:34 86° E 04:44:08 10° S
Okean 3 Rocket 4.2 04:33:32 10° N 04:37:36 37° ENE 04:39:50 22° SE
MOS 1 4.3 04:37:46 15° SSE 04:42:29 74° ENE 04:48:08 10° N
Cosmos 2221 3.5 04:40:36 10° SSW 04:44:46 48° W 04:48:58 10° N
Okean O Rocket 2.7 04:40:44 10° S 04:44:57 43° W 04:49:12 10° NNW
IRS-1C Rocket 4.2 04:46:13 21° SE 04:49:37 59° ENE 04:54:47 10° N
Cosmos 1943 3.4 04:47:05 10° SSW 04:52:45 75° WNW 04:58:25 10° NNE
Cosmos 1340 Rocket 4.0 04:59:03 25° E 04:59:07 25° E 05:02:23 10° NE
Cosmos 1766 Rocket 4.0 04:55:06 10° NNW 04:59:30 62° W 05:02:52 17° S
SPOT 3 Rocket 4.4 04:59:09 25° ESE 05:01:16 34° ENE 05:05:52 10° N
IRS-1A Rocket 4.2 04:59:02 24° SSE 05:02:31 72° ENE 05:08:03 10° N
USA 229 DEB 4.1 05:00:39 10° NW 05:08:19 83° WSW 05:13:29 25° SSE
USA 229 4.1 05:00:45 10° NW 05:08:25 84° WSW 05:13:36 25° SSE
Ariane Rocket 3.4 05:09:01 31° SE 05:10:58 47° ENE 05:15:50 10° N
Cosmos 1743 3.8 05:08:15 10° NNW 05:11:38 38° W 05:13:46 19° SSW
Terra 1.9 05:13:06 36° SE 05:14:48 60° ENE 05:19:27 10° N
Meteor 1-27 Rocket 3.8 05:12:41 30° SSE 05:15:09 54° E 05:20:32 10° NNE
MetOp-B 4.3 05:13:38 23° S 05:17:00 68° WSW 05:22:21 10° NNW
USA 59 Rocket 2.2 05:14:20 10° N 05:17:15 18° NE 05:19:18 14° E
MOS 1 Rocket 3.9 05:17:55 35° ESE 05:19:37 48° ENE 05:24:42 10° N
Helios 1B 4.4 05:17:18 10° NNE 05:21:37 73° ESE 05:23:03 41° S
USA 306 3.5 05:20:43 10° NNW 05:24:22 41° NE 05:25:11 35° ENE
Cosmos 1408 Rocket 3.5 05:20:52 10° N 05:25:20 74° E 05:26:25 50° SSE
GEOS 3 Rocket 3.6 05:21:24 10° NE 05:26:27 54° ESE 05:28:29 33° S
Lacrosse 5 4.3 05:25:51 10° W 05:27:20 11° WSW 05:28:49 10° SW
DELTA 2 R/B (1) 3.9 05:22:10 10° SW 05:27:23 42° SSE 05:27:44 41° SE
Chandra Rocket (1) 4.5 04:58:18 10° WSW 05:28:29 54° S 05:33:08 30° SE
USA 245 4.2 05:29:59 26° NNW 05:29:59 26° NNW 05:31:12 10° NNW
Okean-O 4.4 05:26:47 13° SSW 05:29:53 27° W 05:33:39 10° NW
Okean 1 3.2 05:29:05 50° SSW 05:30:01 79° W 05:33:54 10° N
Cosmos 1452 Rocket 3.5 05:25:45 10° NNW 05:30:59 79° WSW 05:32:54 40° S
Landsat 4 3.3 05:31:29 84° SSE 05:31:36 90° NNW 05:35:06 10° NNW
ERS-1 Rocket 3.0 05:32:05 37° S 05:34:05 72° WSW 05:39:08 10° NNW
Cosmos 1726 2.6 05:33:23 10° NNW 05:36:21 40° W 05:36:25 40° W
Spot 1 3.9 05:34:39 10° NNE 05:38:46 67° ESE 05:39:00 65° SE
USA 281 3.7 05:37:49 33° ESE 05:40:25 49° ENE 05:46:42 10° NNW
Cosmos 1151 Rocket 3.0 05:40:46 59° E 05:40:49 59° E 05:45:05 10° NNE
SPOT 5 4.2 05:42:37 20° SW 05:44:50 31° W 05:48:47 10° NW
Cosmos 614 Rocket 3.9 05:44:17 53° SSE 05:45:18 67° ESE 05:50:29 10° NNE
NOSS 3-3 (C) 3.8 05:47:35 49° ESE 05:47:37 49° ESE 05:53:17 10° NE
Meteor 2-10 4.0 05:42:29 10° N 05:47:57 85° E 05:49:12 54° SSE
Cosmos 1536 3.3 05:45:18 10° NNW 05:49:05 50° W 05:49:34 47° WSW
BREEZE-M DEB (TANK) 3.5 05:52:43 44° E 05:52:43 44° E 06:00:17 10° ENE
ISS -2.6 05:48:47 10° WNW 05:51:08 39° WNW 05:51:08 39° WNW
Cosmos 1092 Rocket 4.3 05:51:37 43° ESE 05:52:40 47° E 05:58:40 10° NNE
Cosmos 1733 3.5 05:50:07 10° N 05:52:55 55° N 05:52:55 55° N
Cosmos 1805 4.3 05:51:36 10° N 05:54:09 33° NE 05:54:09 33° NE
Cosmos 1500 Rocket 3.8 05:56:03 10° NNW 06:00:17 58° W 06:00:39 56° WSW
Lacrosse 4 Rocket 3.1 05:58:50 10° N 06:02:01 22° NE 06:02:01 22° NE
Cosmos 1833 Rocket 3.9 06:03:35 26° ENE 06:03:35 26° ENE 06:07:02 10° NE
Cosmos 2195 Rocket 4.4 06:01:40 54° SSE 06:02:57 69° E 06:09:01 10° NNE
Cosmos 1340 3.5 06:00:01 10° N 06:02:24 43° NNW 06:02:24 43° NNW
Nadezhda 4 Rocket 4.2 06:03:50 34° SSW 06:06:37 68° W 06:12:51 10° N
NOSS 2-1 (C) 4.3 06:04:39 10° NNW 06:08:44 48° ENE 06:09:09 47° ENE
Cosmos 2369 Rocket 4.4 06:07:20 10° WNW 06:10:40 16° W 06:13:28 12° SW
Cosmos 1805 Rocket 3.9 06:06:39 10° NNW 06:10:57 55° W 06:11:09 54° WSW
Cosmos 1302 Rocket 3.8 06:08:00 10° NNW 06:13:13 82° WSW 06:13:38 74° SSW
Cosmos 1992 Rocket 4.4 06:08:23 10° N 06:13:26 48° ENE 06:13:37 47° ENE
Landsat 5 4.1 06:11:55 10° N 06:15:30 44° WNW 06:15:30 44° WNW
Cosmos 1633 Rocket 4.0 06:13:08 10° N 06:16:29 37° NE 06:16:29 37° NE
Cosmos 220 Rocket 4.4 06:19:24 57° WNW 06:19:27 57° WNW 06:23:44 10° N
Cosmos 1666 Rocket 4.2 06:15:31 10° N 06:18:53 46° NE 06:18:53 46° NE
Cosmos 1656 4.0 06:19:30 10° N 06:24:49 49° ENE 06:25:08 48° ENE
Sich 1 4.1 06:21:09 10° NNW 06:25:10 36° W 06:25:18 36° W
Centaur D AC-29 3.9 06:18:44 10° WSW 06:25:31 51° SSE 07:30:26 10° ESE
Centaur D AC-29 3.9 06:18:43 10° WSW 06:25:31 51° SSE 07:30:26 10° ESE
Centaur D AC-29 3.9 06:18:43 10° WSW 06:25:32 51° SSE 07:30:26 10° ESE
IRIDIUM 104 4.2 06:26:32 10° N 06:31:46 87° W 06:31:46 87° W
CZ-2C R/B 4.2 06:30:54 10° NNE 06:34:19 51° NNE 06:34:19 51° NNE
Cosmos 1626 4.4 06:41:26 20° N 06:41:26 20° N 06:42:35 10° N
IRIDIUM 114 4.4 06:35:42 10° N 06:40:53 71° W 06:40:53 71° W
CZ-3 Stage 3 3.9 06:12:11 10° WSW 06:44:47 54° S 06:47:18 46° SE
Cosmos 2026 Rocket 4.2 06:44:41 52° SW 06:46:01 64° W 06:52:14 10° N
Cosmos 1818 4.4 06:43:51 31° WSW 06:46:04 48° NW 06:51:22 10° NNE
Terra 4.2 06:51:48 12° WSW 06:52:45 12° W 06:54:38 10° WNW
ARIANE 5 R/B 3.5 06:57:31 46° NNW 06:57:31 46° NNW 07:00:35 10° NNW
Cosmos 1697 Rocket 3.4 06:58:38 10° N 07:03:56 41° ENE 07:03:59 41° ENE
Cosmos 724 4.4 07:06:45 63° ENE 07:06:45 63° ENE 07:11:43 10° NNE
USA 59 Rocket 1.2 07:02:32 10° NW 07:05:51 46° WNW 07:05:51 46° WNW
Cosmos 407 Rocket 4.5 07:10:20 39° NE 07:10:20 39° NE 07:13:53 10° NNE
Meteor 2-12 Rocket 4.3 07:09:12 82° WSW 07:09:19 82° W 07:15:30 10° N
Cosmos 1980 Rocket 3.8 07:07:43 10° N 07:12:16 24° NE 07:13:15 23° ENE
USA 267 3.9 07:07:47 10° NE 07:12:17 39° E 07:12:17 39° E
S3M 4.5 07:08:58 10° N 07:15:09 49° E 07:15:14 49° E
Cosmos 1607 4.0 07:17:29 71° WSW 07:18:03 77° WNW 07:24:34 10° NNE
Cosmos 2251 Rocket 4.3 07:23:50 44° NE 07:23:50 44° NE 07:27:35 10° NNE
Cosmos 1553 Rocket 3.9 07:17:13 10° N 07:23:08 75° W 07:23:08 75° W
USA 281 4.3 07:24:41 29° WSW 07:25:02 29° WSW 07:30:39 10° NW
Cosmos 2285 Rocket 3.9 07:28:32 86° N 07:28:32 86° N 07:34:45 10° NNE
COSMOS 2406 4.4 07:32:37 32° ENE 07:32:37 32° ENE 07:36:17 10° NE
H-2A R/B 4.3 07:38:14 29° NW 07:38:14 29° NW 07:40:29 10° NNW
Meteor 1-13 Rocket 4.4 07:37:05 74° NNE 07:37:05 74° NNE 07:42:27 10° N
Lacrosse 4 Rocket 3.8 07:36:47 10° NW 07:37:56 17° WNW 07:37:56 17° WNW
H-2A R/B 3.9 07:40:10 10° NNE 07:42:24 27° NE 07:42:24 27° NE
Cosmos 1833 Rocket 3.8 07:45:14 34° WNW 07:46:01 35° WNW 07:51:08 10° N
Cosmos 2082 Rocket 2.7 07:52:08 55° NE 07:52:08 55° NE 07:56:41 10° NNE
Cosmos 2266 Rocket 4.1 07:55:11 65° WNW 07:55:11 65° WNW 08:01:12 10° N
Cosmos 1655 Rocket 4.0 08:00:31 83° NNW 08:00:31 83° NNW 08:06:41 10° N
Meteor 1-22 Rocket 4.5 08:00:52 10° N 08:05:15 61° N 08:05:15 61° N
Cosmos 883 Rocket 4.5 08:01:34 10° N 08:07:31 81° NNW 08:07:31 81° NNW
ALOS 2 4.4 08:10:42 27° NW 08:10:42 27° NW 08:12:56 10° NNW
Meteor 1-15 Rocket 4.5 08:05:55 10° N 08:10:38 64° NNW 08:10:38 64° NNW
Lacrosse 5 rocket 3.7 08:22:22 10° NNW 08:25:22 19° NNE 08:25:54 19° NE
SJ 16-02 3.9 08:41:02 12° ENE 08:41:02 12° ENE 08:41:56 10° ENE
Meteor 2-10 Rocket 4.1 08:37:37 10° NNW 08:42:30 55° NW 08:42:30 55° NW
Cosmos 2322 Rocket 4.4 08:40:23 10° N 08:44:28 20° NE 08:48:34 10° E
Cosmos 1697 Rocket 4.4 08:43:08 10° NW 08:45:42 20° WNW 08:45:42 20° WNW
ATLAS CENTAUR R/B 4.1 08:38:40 10° NW 08:51:08 54° WSW 08:52:15 52° SW
SL-08 R/B 4.3 08:52:22 86° ENE 08:52:22 86° ENE 08:58:28 10° N
Cosmos 1980 Rocket 3.1 08:51:02 10° NW 08:54:59 38° WNW 08:54:59 38° WNW
USA 267 3.9 08:50:47 10° NE 08:57:00 49° NW 08:59:36 32° W
DELTA 2 R/B (1) 4.2 09:01:48 48° E 09:01:48 48° E 09:05:47 10° E
Cosmos 1745 Rocket 4.1 09:02:27 63° ESE 09:02:49 64° E 09:09:00 10° NNE
Cosmos 540 Rocket 4.4 09:00:30 10° NNW 09:03:59 40° NW 09:03:59 40° NW
Helios 1A Rocket 4.4 09:11:41 32° N 09:11:41 32° N 09:13:55 10° N
Cosmos 1908 Rocket 4.5 09:12:27 10° N 09:15:37 46° N 09:15:37 46° N
H-2A R/B 4.5 09:17:16 10° NNW 09:19:12 14° WNW 09:19:12 14° WNW
CZ-2D R/B 3.4 09:17:51 10° NE 09:22:33 29° E 09:23:18 28° ESE
BREEZE-M DEB (TANK) 3.8 09:22:52 38° NW 09:24:37 89° NNE 09:37:57 10° SE
Resurs 1-4 Rocket 3.2 09:21:37 10° NNE 09:26:20 33° E 09:26:52 32° ESE
Nadezhda 1 Rocket 3.9 09:22:03 10° N 09:28:28 90° W 09:29:14 71° S
USA 234 3.6 09:23:27 10° ESE 09:29:54 63° NE 09:36:22 10° NW
SL-16 R/B 2.2 09:26:02 10° NNW 09:31:43 75° ENE 09:32:27 65° ESE
Timation 1 Rocket 4.2 09:34:32 72° WSW 09:34:57 76° WNW 09:40:56 10° NNE
Cosmos 2082 Rocket 4.2 09:33:56 15° WNW 09:35:36 17° NW 09:39:17 10° NNW
Cosmos 2219 Rocket 4.5 09:33:19 10° N 09:37:32 21° NE 09:41:45 10° ESE
SL-4 R/B 2.8 09:45:47 51° ENE 09:45:47 51° ENE 09:49:09 10° NE
MOZ.5/SAFIR/RUBIN 5/SL-8 3.8 09:46:32 81° N 09:46:32 81° N 09:51:02 10° NNW
Cosmos 1455 4.4 09:45:45 10° NNW 09:46:45 17° NNW 09:46:45 17° NNW
Cosmos 2360 Rocket 3.0 09:43:31 10° NNW 09:49:01 49° ENE 09:52:40 21° SE
RESURS DK-1 4.2 09:47:01 10° N 09:50:33 28° ENE 09:52:32 19° ESE
Cosmos 1953 4.4 09:54:43 10° NNW 09:56:03 18° NW 09:56:03 18° NW
Cosmos 2237 4.3 09:53:09 10° NNW 09:58:37 56° WSW 09:58:37 56° WSW
COBE Rocket 3.8 09:53:56 10° N 09:58:55 82° WNW 09:59:14 77° SW
Cosmos 968 Rocket 3.7 09:59:45 52° WNW 09:59:56 52° WNW 10:04:57 10° N
CZ-2C R/B 3.1 09:58:42 33° SE 10:00:47 55° ENE 10:05:50 10° N
IDEFIX/ARIANE 42P 2.4 09:58:37 10° N 10:03:54 82° WNW 10:04:34 68° SW
Lacrosse 5 rocket 3.7 10:00:03 10° NW 10:00:40 14° NW 10:00:40 14° NW
Cosmos 1709 Rocket 4.1 10:03:20 52° SW 10:04:31 61° W 10:10:50 10° N
Cosmos 2242 Rocket 3.7 10:04:52 65° NW 10:04:52 65° NW 10:09:03 10° N
Cosmos 1825 4.4 10:04:01 15° E 10:04:37 15° E 10:06:40 10° NE
ADEOS II 2.8 09:59:42 10° NNE 10:04:45 47° E 10:06:15 37° SE
Meteor 1-24 Rocket 4.0 10:05:10 45° SSE 10:07:00 71° E 10:12:59 10° NNE
Cosmos 1300 Rocket 3.8 10:04:30 10° NNW 10:08:08 55° NW 10:08:08 55° NW
ATLAS 2AS CENTAUR R/B 3.9 10:10:19 10° NNW 10:16:42 41° NE 10:22:53 10° ESE
SJ 16-02 1.9 10:17:47 43° WNW 10:17:47 43° WNW 10:21:45 10° N
H-2A R/B 3.9 10:15:35 10° N 10:19:03 46° NW 10:19:03 46° NW
NPP 3.8 10:16:08 10° N 10:21:25 58° WNW 10:22:31 49° WSW
Cosmos 2181 Rocket 4.1 10:15:46 10° N 10:22:07 78° E 10:25:36 28° SSE
Cosmos 1703 3.5 10:23:01 54° NW 10:23:01 54° NW 10:26:11 10° N
Okean 2 Rocket 4.4 10:19:19 10° N 10:23:25 37° ENE 10:26:13 18° SE
Cosmos 1378 Rocket 3.8 10:22:38 50° SE 10:23:26 61° E 10:27:41 10° NNE
ATLAS CENTAUR R/B 2.1 10:26:52 34° ESE 10:26:52 34° ESE 10:29:57 10° NE
SL-16 R/B 3.3 10:21:27 10° SE 10:27:28 53° ENE 10:33:32 10° N
Cosmos 2322 Rocket 2.2 10:23:21 10° NNW 10:28:54 58° WSW 10:30:16 46° SSW
Cosmos 1892 3.3 10:31:25 39° ESE 10:31:55 43° E 10:35:15 10° NNE
Cosmos 2297 Rocket 4.3 10:29:13 10° SE 10:33:02 19° E 10:36:51 10° ENE
Cosmos 2333 Rocket 2.1 10:28:24 10° NNW 10:34:09 78° WSW 10:37:38 25° SSE
CZ-2C R/B 3.2 10:29:19 10° N 10:35:06 79° WNW 10:37:12 40° SSW
COSMOS 2441 4.3 10:34:14 10° N 10:38:58 66° WNW 10:40:11 47° SW
Okean 1 Rocket 4.5 10:36:50 10° NNE 10:40:49 35° ENE 10:44:45 10° SE
Tiangong -1.8 10:41:09 62° NNE 10:41:09 62° NNE 10:43:56 10° ENE
Cosmos 1295 Rocket 4.5 10:40:54 27° S 10:44:22 80° E 10:50:28 10° N
OAO 1 Rocket 4.4 10:42:54 40° WSW 10:44:40 65° S 10:49:54 10° E
AQUA 3.7 10:40:41 10° NNE 10:45:26 86° WNW 10:47:07 40° SSW
DELTA 2 R/B (1) 3.5 10:42:36 19° W 10:46:35 59° SSW 10:52:02 10° SE
SAR-Lupe-1 4.5 10:45:23 10° NNE 10:48:54 57° ESE 10:49:55 39° SSE
Cosmos 1814 Rocket 4.4 10:47:28 10° NNW 10:52:21 41° WSW 10:53:30 36° SW
Meteor 2-5 Rocket 4.5 10:59:06 29° WSW 11:01:22 40° WNW 11:06:56 10° N
CZ-2D R/B 3.1 10:57:40 10° N 11:02:30 33° WNW 11:04:36 25° WSW
Resurs 1-4 Rocket 3.2 11:01:34 10° N 11:05:58 28° WNW 11:07:56 22° WSW
Cosmos 839 Rocket 4.0 11:01:26 10° NW 11:08:03 61° WSW 11:14:04 10° SSE
Cosmos 2074 Rocket 4.1 11:04:50 26° SSW 11:08:13 56° W 11:14:20 10° N
Cosmos 371 Rocket 3.3 11:09:08 24° S 11:11:58 79° ESE 11:16:46 10° NNE
Cosmos 1486 Rocket 3.9 11:09:26 27° SSW 11:12:19 75° WNW 11:17:32 10° NNE
Meteor 2-11 Rocket 4.4 11:08:32 19° S 11:13:02 83° W 11:19:09 10° N
USA 234 3.8 11:07:16 10° S 11:13:05 34° SW 11:18:56 10° WNW
Cosmos 158 Rocket 4.1 11:08:38 10° NNW 11:14:02 80° ENE 11:19:20 10° SSE
Cosmos 304 Rocket 3.9 11:11:47 20° S 11:14:59 69° ESE 11:19:43 10° NNE
SL-16 R/B 4.1 11:12:35 10° WNW 11:14:15 13° W 11:14:15 13° W
Cosmos 1570 Rocket 4.1 11:15:07 10° NNW 11:20:20 58° WSW 11:25:33 10° S
Cosmos 2322 3.8 11:15:18 10° NNW 11:21:01 83° ENE 11:26:41 10° SSE
Cosmos 2219 Rocket 2.3 11:16:18 10° NNW 11:21:49 55° WSW 11:27:18 10° S
Cosmos 1025 Rocket 3.0 11:19:39 19° S 11:22:46 87° W 11:27:10 10° N
SL-4 R/B 4.0 11:20:34 10° WNW 11:24:03 23° NNW 11:27:39 10° NNE
Cosmos 405 Rocket 3.0 11:21:30 10° NNW 11:24:56 40° W 11:26:31 26° SSW
ALOS 2.6 11:20:33 10° N 11:24:58 47° WNW 11:27:37 22° SW
TRAILBLAZER 4.5 11:21:16 10° NW 11:25:51 76° WSW 11:30:24 10° SSE
Cosmos 2208 Rocket 3.9 11:22:43 10° NNW 11:27:56 67° WSW 11:33:03 10° S
RESURS DK-1 3.7 11:25:02 10° NW 11:28:01 21° WSW 11:28:01 21° WSW
YAOGAN 6 3.7 11:25:23 10° NNE 11:28:27 36° E 11:31:29 10° SSE
Envisat 3.0 11:23:40 10° NNE 11:28:45 82° ESE 11:33:34 11° S
Atlas Centaur 2 2.8 11:30:56 18° SSW 11:32:21 22° S 11:35:20 10° ESE
Cosmos 2360 Rocket 3.4 11:28:27 10° NW 11:32:35 21° W 11:34:19 18° SW
Cosmos 1328 4.0 11:31:38 23° SW 11:33:43 47° W 11:37:25 10° N
UNK 3.8 11:31:05 10° S 11:35:37 57° W 11:40:12 10° NNW
Cosmos 773 Rocket 4.3 11:32:29 10° NNW 11:37:37 70° ENE 11:42:42 10° SSE
Cosmos 1825 3.4 11:37:33 19° WSW 11:38:37 22° WNW 11:41:22 10° NNW
Cosmos 1455 Rocket 3.5 11:34:28 10° N 11:38:50 65° E 11:43:11 10° SSE
IRS-1D 4.2 11:34:20 10° NNE 11:39:34 58° E 11:44:43 10° S
CZ-2C R/B 4.1 11:40:10 15° WSW 11:41:22 16° W 11:44:25 10° NW
Nadezhda 3 Rocket 4.2 11:36:17 10° NNW 11:42:24 53° W 11:48:28 10° SSW
CZ-4C R/B 2.6 11:38:52 10° S 11:42:47 43° ESE 11:47:29 10° NE
ASTEX 1 3.4 11:38:20 10° S 11:43:16 87° E 11:48:11 10° N
ADEOS II 3.6 11:40:13 10° NNW 11:43:59 21° WNW 11:47:08 12° WSW
COSMOS 2428 2.7 11:38:31 10° NNW 11:44:12 79° WSW 11:49:52 10° SSE
In-Cosmos 22 Rocket 4.4 11:42:37 10° S 11:48:04 76° E 11:53:43 10° NNE
Cosmos 2237 Rocket 3.5 11:44:41 10° N 11:50:07 44° ENE 11:55:29 10° SE
COSMOS 2455 2.9 11:46:46 12° SSW 11:52:27 86° WNW 11:58:31 10° NNE
Cosmos 2227 Rocket 3.1 11:48:13 10° S 11:53:38 49° ESE 11:59:03 10° NNE
